User: anonymous   Login
Location: Sungai Laei
(2.6000°N, 113.7167°E)
Time: 03:42:07
(UTC+00:00)
Language:

FUSE - Orbit

View from above orbital plane
View from above orbital plane
View from above satellite
View from above satellite

Ground track
Ground track

The orbit data is extracted from the following two-line orbital elements,

1 25791U 99035A   22228.68165970  .00000304  00000-0  36146-4 0  9999
2 25791  24.9856 338.5992 0010515  87.8565 272.3146 14.42937708221364
Epoch (UTC): 16 August 2022 16:21:35
Eccentricity: 0.0010515
inclination: 24.9856°
perigee height: 741 km
apogee height: 756 km
right ascension of ascending node: 338.5992°
argument of perigee: 87.8565°
revolutions per day: 14.42937708
mean anomaly at epoch: 272.3146°
orbit number at epoch: 22136

The dashed part of the orbit path shows where the satellite is in the earth's shadow,  

DLR